Tracking 19145 objects as of 25-Apr-2018
HD Live streaming from Space Station
objects crossing your sky now

ORBCOMM FM 24

Track ORBCOMM FM 24 now!
10-day predictions
ORBCOMM FM 24 is classified as:


NORAD ID: 25478
Int'l Code: 1998-053D
Perigee: 789.6 km
Apogee: 790.4 km
Inclination: 45.0 °
Period: 100.5 minutes
Semi major axis: 7161 km
RCS: 0.622 m2 (medium)
Launch date: September 23, 1998
Source: ORBCOMM (ORB)
Launch site: Pegasus launched from Eastern Range Air Space (ERAS)
aabbcc
Your satellite tracking list
Your tracking list is empty




NASA's NSSDC Master Catalog

Two Line Element Set (TLE):
1 25478U 98053D   18114.89381774 +.00000130 +00000-0 +98808-4 0  9994
2 25478 045.0104 322.0729 0000541 139.3753 220.7133 14.32654392022784
Source of the keplerian elements: AFSPC